Regional Weather Roundup
Issued by NWS

Home | Current Version | Previous Version | Graphics & Text | Print | Product List | Glossary On
Versions: 1 2 3 4 5 6 7 8 9 10 11 12 13 14 15 16 17 18 19 20 21 22 23 24 25 26 27 28 29 30 31 32 33 34 35 36 37 38 39 40 41 42 43 44 45 46 47 48 49 50
919
ASUS43 KLSX 291907
RWRMO

WEATHER SUMMARY FOR MISSOURI
NATIONAL WEATHER SERVICE SPRINGFIELD MO
200 PM CDT MON AUG 29 2016

NOTE: "FAIR" INDICATES FEW OR NO CLOUDS BELOW 12,000 FEET WITH NO
       SIGNIFICANT WEATHER AND/OR OBSTRUCTIONS TO VISIBILITY.
       CURRENT SKY AND/OR WEATHER CONDITIONS ARE NOT AVAILABLE FOR
       CHILLICOTHE AND FARMINGTON.

MOZ001>031-035>038-043-044-053-054-292000-
...NORTHERN AND WESTERN MISSOURI...

CITY           SKY/WX    TMP DP  RH WIND       PRES   REMARKS
KANSAS CTY INT PTSUNNY   86  69  56 CALM      30.18F HX  90
KANSAS C DTWN  PTSUNNY   85  71  63 VRB5      30.16F HX  90
LEE`S SUMMIT   MOSUNNY   87  70  56 E9        30.18F HX  92
ST JOSEPH      CLOUDY    87  73  62 CALM      30.17F HX  94
CHILLICOTHE      N/A     87  75  67 CALM      30.18F HX  96
KIRKSVILLE     PTSUNNY   87  73  62 E7        30.19F HX  94

$$
MOZ066>068-077>081-088>096-101>105-292000-
...SOUTHWEST MISSOURI...

CITY           SKY/WX    TMP DP  RH WIND       PRES   REMARKS
SPRINGFIELD    MOSUNNY   93  68  43 N9        30.16F HX  97
JOPLIN         MOSUNNY   90  69  50 E5        30.15F HX  94
BRANSON        MOSUNNY   90  68  48 E8        30.18F HX  93

$$
MOZ032>034-039>042-045>050-055>058-069>072-292000-
...CENTRAL MISSOURI...

CITY           SKY/WX    TMP DP  RH WIND       PRES   REMARKS
COLUMBIA       CLOUDY    90  73  57 N5        30.18F HX  98
JEFFERSON CITY MOSUNNY   89  71  55 SE5       30.16F HX  95
ROLLA          MOSUNNY   89  69  51 E7        30.18F HX  93
SEDALIA        MOSUNNY   89  72  56 CALM      30.19F HX  96
WHITEMAN AFB   PTSUNNY   88  73  60 N2        30.16F HX  96
OSAGE BEACH    MOSUNNY   87  73  62 NE3       30.18F HX  94

$$
MOZ051-052-059>065-292000-
...EAST CENTRAL MISSOURI...

CITY           SKY/WX    TMP DP  RH WIND       PRES   REMARKS
ST LOUIS INTL  MOSUNNY   93  69  45 SE6       30.18F HX  98
SPIRIT OF STL  PTSUNNY   88  76  67 W5        30.16F HX  99
ST CHARLES     MOSUNNY   90  74  59 VRB5      30.16F HX  99

$$
MOZ072>076-082>087-097>100-106>115-292000-
...SOUTH CENTRAL AND SOUTHEAST MISSOURI...

CITY           SKY/WX    TMP DP  RH WIND       PRES   REMARKS
CAPE GIRARDEAU SUNNY     91  72  53 NE10      30.15F HX  98
FARMINGTON     MOSUNNY   90  74  59 NE7       30.19F HX  99
POPLAR BLUFF   SUNNY     91  75  59 NE10      30.13F HX 101
WEST PLAINS    MOSUNNY   90  71  53 NE8       30.19F HX  96

$$



USA.gov is the U.S. government's official web portal to all federal, state and local government web resources and services.